Dodge City Regional Airport
KDDC : now visible

Airfield :











YOU CAN JOIN US ON...

 
LOGIN :

Register | Disclaimer

   EN    FR    IT 

 









Legend :    VFR   Marginal VFR   IFR   Intensive IFR   Very Intensive IFR
Visi :
Ceiling :
>= 8 km
>= 3000ft
5 to 8 km
1000 to 3000 ft
1500m to 5 km
500 to 1000 ft
800 to 1500m
200 to 500 ft
< 800m
< 200 ft
Symbols :   Thunderstorms  Fog  Heavy snow  Heavy precipitations  Wind > 20 kt






- Airport Elevation : 2594 ft
- IATA code : DDC


KDDC - Dodge City Regional

CURRENT METAR :
  • 061752Z AUTO 27019G25KT 10SM CLR 14/M05 A2972 RMK AO2 PK WND 28028/1741 SLP061 T01441050 10144 20028 51012

EXPIRED METARs :
  • 061652Z AUTO 27010KT 10SM CLR 12/M03 A2972 RMK AO2 SLP059 T01171028
  • 061552Z AUTO 29014KT 10SM CLR 08/M04 A2970 RMK AO2 SLP059 T00781044

TAF KDDC
Valid from the 06 at 18:00 until the 07 at 18:00 UTC


061731Z 0618/0718 31015G30KT P6SM SKC
FM062300 31012KT P6SM FEW200
KZKC FIR / North America



MET'MAP, your aeronautical weather chart ! - Copyright ORBIFLY December 2007 - Disclaimer

ORBIFLY MET'MAP TEAM :

Programming & Development : Alexandra Zaïnal
Original concept : Baudouin d'Aumeries
Technical & hardware support : Manuel Goepfert
Assistance : Marc-Olivier Méhu




SOURCES & CREDITS :

   NOAA       Earth
Advisory